GFSGL_sfc_dewp_210.txt.gz
Dewpoint
49 50 52 54 56 57 58 59 61 64 65 65 66 66 66 66 67 67 67 66 66 66 63 62 59 56 53 52 52 52 52 51 50 50 50 50 48 51 56 53 52 50 47
48 51 53 54 53 54 55 56 58 60 62 64 65 66 66 66 66 66 66 67 66 64 61 59 57 55 54 53 51 53 52 52 50 49 48 45 48 51 52 53 50 47 47
49 50 52 52 52 52 53 54 55 57 60 63 65 65 65 66 66 66 66 66 65 63 60 58 55 54 53 52 52 51 51 49 51 48 44 46 47 49 50 51 51 51 48
49 51 52 51 51 51 52 53 54 55 58 61 64 64 65 66 66 66 66 65 64 62 59 57 54 53 53 51 51 52 50 49 48 45 44 45 47 48 48 49 49 49 49
49 50 51 52 52 52 52 52 52 55 56 60 62 64 65 65 65 65 65 63 61 58 57 56 54 54 54 51 50 51 50 47 45 43 43 44 45 46 46 46 45 47 48
48 48 50 51 51 51 51 51 52 54 56 59 61 63 64 65 58 57 63 62 60 57 55 54 54 54 52 51 51 50 49 46 45 43 41 45 46 46 45 45 44 44 41
47 48 49 50 50 50 50 50 52 54 55 57 61 63 64 64 53 52 56 61 59 57 55 53 53 52 52 52 50 49 48 47 45 45 44 45 45 45 46 44 44 42 40
46 48 49 49 49 49 50 50 52 53 54 57 60 62 63 63 50 50 53 59 57 56 55 54 53 53 52 52 50 47 46 45 45 40 47 46 47 46 46 44 43 40 37
47 48 48 48 48 48 49 50 51 53 54 56 60 61 62 63 50 49 57 59 57 55 55 54 53 52 47 46 48 44 42 41 43 43 43 42 41 41 41 37 32 32 30
46 47 47 47 47 47 49 50 51 53 54 56 58 62 60 62 48 50 56 58 55 54 53 52 49 49 43 43 47 43 41 41 42 43 43 43 43 42 42 43 33 28 29
45 46 46 46 46 48 50 51 51 52 55 56 58 59 57 56 52 50 51 57 55 52 50 50 48 42 40 40 41 42 41 43 42 41 40 40 41 41 39 36 39 35 33
44 44 44 46 47 49 50 50 51 53 54 56 58 57 57 54 50 49 49 52 51 52 49 48 45 40 38 37 38 38 39 40 39 37 36 36 36 36 37 39 40 38 37
44 44 45 46 47 49 49 50 50 52 54 56 57 56 55 55 53 48 47 46 48 51 50 46 41 38 37 38 39 39 39 39 37 36 35 36 37 41 41 38 38 39 37
43 44 46 47 48 48 49 50 50 52 55 56 56 55 55 53 51 49 50 49 47 48 46 43 39 38 38 39 39 40 40 39 38 37 38 39 41 41 35 32 32 32 30
43 44 45 46 47 47 48 49 52 56 57 56 55 55 53 52 51 49 50 50 49 47 46 43 38 37 37 38 39 41 41 42 40 40 39 40 41 41 34 32 31 30 27
43 44 45 46 47 49 50 50 47 44 47 47 47 52 54 48 44 44 44 43 42 42 46 42 39 37 36 37 39 40 41 41 41 40 41 40 40 41 36 33 32 29 27
43 44 46 46 47 48 49 50 51 50 43 45 46 44 46 45 43 43 41 40 40 41 44 41 39 37 37 38 39 40 40 41 43 41 40 40 41 41 39 34 33 30 29
45 44 46 48 49 49 49 51 55 54 52 51 43 48 43 41 41 40 40 41 42 43 41 42 43 41 38 40 40 40 42 41 41 40 40 39 41 41 40 39 38 34 31
48 47 48 48 50 51 52 55 55 54 52 46 45 43 41 41 40 40 43 46 46 44 42 42 44 44 41 40 41 41 41 40 39 39 38 38 39 40 40 39 39 35 33
49 46 46 50 52 52 54 54 53 50 48 48 46 41 41 41 43 45 50 49 47 45 45 43 42 42 42 41 41 41 40 38 38 38 38 38 38 38 36 35 34 32 32
50 50 43 49 54 55 55 53 51 49 48 47 44 43 41 45 45 48 48 47 45 45 44 43 40 41 41 41 40 39 39 38 37 37 37 37 38 36 35 34 31 30 30
52 53 53 54 54 53 53 51 50 50 49 45 44 41 37 47 47 46 45 45 45 45 43 41 40 40 39 39 39 38 37 36 37 37 36 36 37 35 34 34 32 31 29
53 53 53 54 53 47 50 50 50 49 47 45 43 44 47 47 46 45 44 44 44 42 39 39 40 40 40 39 39 37 35 36 37 37 35 35 35 35 35 34 32 30 29
53 53 53 52 52 51 50 49 48 43 45 45 45 47 47 45 44 44 45 45 44 40 39 39 40 39 40 40 39 37 37 38 37 36 35 34 34 34 35 34 32 30 29
52 52 52 52 51 50 48 47 46 46 45 45 46 46 45 45 45 45 45 44 42 40 40 40 41 41 41 40 38 36 34 33 37 35 35 34 33 35 34 33 33 30 30
49 49 49 50 50 49 47 46 46 46 46 46 46 46 46 46 45 45 44 43 42 40 39 40 40 40 40 39 38 34 32 32 34 34 36 34 33 33 32 31 30 27 28

GFSGL_sfc_dewp_216.txt.gz
Dewpoint
54 54 54 53 55 57 57 56 55 56 55 54 54 56 59 62 64 67 67 66 64 67 68 68 68 70 69 66 65 68 65 65 64 54 57 59 59 56 56 55 51 50 47
52 52 53 54 54 57 57 55 54 54 54 52 51 52 53 56 61 63 63 65 63 64 65 66 67 68 69 70 64 65 66 67 61 58 57 56 57 58 58 56 51 47 47
50 50 52 54 55 56 56 56 54 53 53 52 50 49 49 52 55 59 60 61 65 64 64 64 65 67 68 67 65 64 65 64 61 57 57 56 55 55 56 56 54 52 48
48 49 51 54 55 55 55 56 55 54 53 53 52 50 50 49 51 54 57 59 62 63 64 65 64 65 67 67 66 66 63 61 61 57 55 53 53 56 55 52 51 50 47
48 50 52 54 54 54 55 55 55 55 54 53 52 51 51 50 47 53 56 58 61 62 64 63 65 64 63 65 64 64 62 60 59 57 56 51 50 52 52 51 49 48 50
47 48 50 51 51 53 54 54 55 55 54 54 53 51 52 48 46 49 55 60 60 63 65 64 65 63 63 57 57 58 60 60 58 54 56 50 55 53 52 50 47 47 46
46 46 46 47 48 50 50 52 53 56 57 55 54 53 53 54 47 48 51 59 61 63 65 65 65 65 63 62 56 56 56 54 57 60 58 55 56 56 56 54 51 48 45
44 44 43 45 46 48 49 53 56 57 57 55 54 54 53 52 48 48 50 60 62 62 64 65 66 66 62 61 58 58 57 56 57 55 61 60 59 59 57 53 53 52 49
44 44 44 44 45 48 50 54 56 55 55 54 53 53 53 53 48 47 52 58 59 61 61 65 66 64 54 50 56 57 54 51 48 49 51 48 48 47 50 48 48 44 42
43 44 45 47 47 48 52 55 55 55 53 51 52 53 50 53 48 46 50 55 61 62 64 65 55 61 48 48 55 53 50 49 52 53 52 49 51 50 48 55 46 38 38
45 46 48 49 51 50 51 53 54 53 52 53 51 54 55 54 55 47 47 56 61 62 61 59 58 48 46 46 50 54 49 49 51 52 50 50 50 49 47 47 48 38 36
45 46 47 49 48 46 51 49 49 51 52 52 52 51 50 56 50 49 48 47 56 62 60 59 56 45 45 47 51 46 45 49 51 47 47 45 43 42 44 44 46 43 42
42 44 45 46 46 47 48 48 46 50 47 46 45 45 47 48 51 48 48 46 47 60 60 56 49 45 47 47 46 45 47 53 48 47 45 43 40 41 45 45 45 46 45
42 42 42 43 44 45 45 46 47 46 47 46 45 46 46 47 51 57 58 52 47 54 51 51 48 48 49 49 47 49 53 49 47 46 43 43 41 41 37 34 33 34 36
39 40 40 40 41 43 44 47 47 48 46 46 48 48 47 47 51 53 54 57 56 54 50 48 48 49 47 48 49 52 51 47 47 46 43 42 39 34 30 30 30 31 33
39 39 39 40 41 43 44 45 43 42 42 41 42 46 48 47 45 46 46 45 45 43 51 48 48 47 47 48 49 49 47 45 45 43 43 39 34 30 30 30 28 29 28
40 40 41 42 43 43 44 45 45 45 42 42 41 42 41 45 43 44 44 43 41 44 51 49 50 49 48 48 47 43 42 42 44 42 40 35 33 32 31 29 28 27 27
41 40 42 43 43 44 44 45 45 46 46 48 45 43 42 41 42 43 41 42 42 47 51 49 49 50 49 49 47 46 43 41 40 38 36 36 35 32 31 30 28 29 27
42 44 45 45 45 45 45 46 46 47 48 49 51 45 42 41 41 40 41 49 46 48 50 49 49 48 48 48 47 44 42 40 40 40 38 37 35 33 32 30 29 28 29
41 41 42 46 47 46 46 46 47 49 50 50 52 50 43 43 43 42 48 48 47 50 49 48 48 49 49 46 43 42 40 40 41 40 41 39 37 35 33 32 31 30 30
43 43 41 44 45 46 48 48 49 50 53 51 49 46 41 47 45 45 48 49 50 49 48 48 49 49 48 45 42 41 41 41 41 40 40 40 39 36 36 35 33 32 32
46 46 46 47 48 49 50 52 53 54 52 47 47 44 38 47 46 47 50 50 49 49 49 48 48 48 47 44 42 41 41 40 41 41 39 39 39 38 37 37 36 33 31
47 50 49 50 52 48 53 54 55 52 48 47 46 45 47 47 48 49 48 49 49 49 48 48 48 47 45 43 44 41 39 41 43 41 39 40 39 38 38 37 36 35 32
51 53 53 54 53 54 54 54 51 45 47 46 46 47 48 49 48 48 48 48 49 48 48 48 47 43 42 44 43 42 43 44 43 42 40 39 37 37 37 36 34 33 30
53 54 54 53 52 51 50 49 48 47 46 46 48 49 48 47 47 47 47 48 48 47 47 47 45 45 44 43 40 39 39 36 41 37 39 38 37 38 34 33 32 30 30
49 51 52 52 52 51 50 48 48 47 47 48 49 48 47 46 46 46 47 47 47 47 47 46 43 43 43 43 43 38 34 34 37 35 39 37 37 35 34 32 32 30 30

GFSGL_sfc_dewp_219.txt.gz
Dewpoint
51 54 57 57 59 60 60 59 58 59 58 55 54 53 53 55 61 66 66 63 65 67 68 67 67 69 67 70 71 70 69 68 66 62 64 64 63 59 57 55 51 49 48
49 52 55 59 57 62 61 59 58 57 57 54 52 51 49 50 56 59 60 59 61 62 64 66 66 66 69 70 70 70 68 69 67 61 60 61 60 61 59 55 52 48 47
47 47 57 60 60 62 62 61 58 55 54 53 52 50 49 48 48 50 52 56 60 62 64 64 65 66 68 69 70 69 67 68 67 62 58 59 58 59 59 57 56 56 48
47 49 55 59 59 60 60 61 59 56 55 53 53 52 51 50 50 49 48 55 59 59 63 63 64 64 66 68 69 69 68 66 65 63 59 57 57 59 58 55 54 52 48
48 50 53 56 56 58 60 59 58 58 55 55 53 52 52 51 47 53 51 52 58 61 62 61 63 63 61 64 68 68 67 64 62 59 56 55 56 56 56 55 52 51 53
50 49 51 52 52 57 59 59 60 58 57 57 55 53 56 49 46 47 51 54 55 59 61 62 63 62 60 57 58 60 65 66 60 56 54 54 56 54 57 55 53 51 47
46 47 47 49 50 53 53 56 57 60 61 60 59 57 58 58 48 47 48 54 57 58 61 63 61 57 60 62 58 57 57 56 57 57 54 53 55 57 57 57 56 53 49
45 45 45 46 48 52 53 55 58 59 60 60 60 59 59 57 48 46 47 55 56 58 60 62 64 63 63 63 64 64 64 60 59 60 59 57 58 59 59 58 59 57 54
43 43 43 44 47 50 52 54 56 58 59 59 58 58 59 58 48 45 48 55 54 57 57 61 63 63 57 53 64 64 61 60 54 55 55 53 50 50 55 55 51 49 46
42 43 44 46 48 50 53 55 57 57 57 54 56 58 55 58 50 46 48 50 54 51 57 60 54 58 52 51 64 62 58 56 56 54 53 50 52 52 50 57 52 48 44
43 44 45 48 51 52 54 56 56 54 55 56 55 57 58 57 57 46 45 53 51 50 48 53 57 51 47 48 55 60 57 56 54 57 56 56 55 56 53 55 55 48 44
44 44 44 47 47 46 52 53 52 52 54 54 53 52 53 56 51 49 45 45 51 54 53 52 58 47 47 46 51 50 48 53 57 55 54 54 52 51 50 53 56 54 50
44 44 45 45 44 46 48 49 50 51 50 49 47 47 50 50 52 46 45 44 45 50 54 54 52 45 44 46 48 46 48 55 55 53 53 52 51 49 53 52 52 53 53
41 42 43 43 43 44 43 45 45 45 49 46 46 46 47 48 49 53 52 51 46 50 52 57 53 51 49 51 48 50 55 55 53 52 53 48 47 48 46 46 43 42 41
40 41 40 40 41 41 42 43 42 45 45 47 47 47 46 46 46 47 47 50 60 55 56 52 50 50 52 51 51 53 54 53 53 53 53 49 43 43 42 41 37 38 37
40 39 40 40 40 40 40 41 40 40 40 40 40 44 46 43 42 44 45 43 44 44 52 51 50 50 50 50 51 52 53 52 53 53 50 43 42 39 36 35 36 38 38
40 40 40 41 41 41 41 41 41 42 41 40 40 40 40 42 41 41 41 41 41 45 53 51 50 50 50 51 51 52 52 54 52 50 43 44 39 35 33 34 35 36 34
42 41 41 41 42 42 42 42 43 43 43 44 43 42 41 40 40 41 40 41 46 47 55 51 50 49 50 50 52 52 52 52 46 44 44 42 37 34 33 33 33 34 33
41 41 42 43 42 43 43 43 43 44 44 45 47 45 43 41 40 40 39 46 47 48 55 52 51 51 50 52 52 52 51 48 46 45 43 38 37 35 35 33 32 31 32
40 39 40 42 44 44 44 44 44 45 45 46 47 48 50 43 44 45 45 46 50 50 53 52 52 52 51 51 50 50 48 48 48 46 40 39 37 36 34 34 32 31 33
40 41 39 41 42 43 45 46 45 46 46 47 49 50 42 48 48 48 46 48 50 50 52 51 51 52 51 49 48 46 47 47 45 41 38 38 38 37 36 35 33 32 33
43 44 44 44 44 44 45 46 47 48 49 50 49 44 36 47 48 47 49 51 51 52 52 51 50 51 50 49 47 47 47 46 44 40 39 38 39 37 36 35 34 33 33
43 44 45 46 46 44 47 48 50 50 52 49 47 46 46 48 48 48 49 50 51 51 51 51 50 50 50 49 47 45 43 43 43 42 40 39 39 38 37 36 35 35 34
46 48 49 50 50 51 52 52 54 48 50 48 48 47 48 48 49 49 50 50 49 50 50 51 51 50 50 49 49 46 43 43 43 43 43 41 40 39 39 37 35 34 33
50 53 54 54 53 52 52 52 50 49 48 48 47 49 50 49 48 48 49 48 48 49 49 50 51 50 49 47 46 41 38 36 43 39 44 43 42 43 40 39 37 35 34
47 48 49 51 51 50 50 48 48 48 48 48 49 48 48 47 47 48 48 48 48 48 49 49 49 49 48 46 42 37 34 34 38 37 43 43 41 40 39 38 36 34 33

GFSGL_sfc_dewp_222.txt.gz
Dewpoint
60 62 64 63 65 66 67 66 65 66 64 62 61 61 61 61 63 64 65 66 63 65 66 66 66 67 66 67 68 68 67 65 61 63 64 63 58 54 54 51 50 48 49
58 59 60 63 64 65 65 65 65 64 63 61 60 59 57 57 59 60 60 59 60 63 62 63 64 65 66 67 67 66 67 66 63 61 63 63 58 56 54 50 48 47 48
53 53 61 63 62 65 64 65 65 63 62 60 58 57 56 56 56 57 56 56 58 59 61 62 63 64 65 66 67 67 67 67 65 62 61 62 60 57 53 51 50 48 47
52 52 58 63 62 62 64 64 64 62 61 60 59 57 56 56 55 56 55 56 57 56 59 61 63 63 63 65 66 67 67 66 65 61 61 60 59 57 54 53 53 49 47
53 54 57 61 64 63 62 63 63 62 60 59 58 58 58 57 52 57 56 56 58 59 60 60 60 62 61 62 65 66 67 65 62 61 60 59 57 56 54 54 52 48 47
53 52 53 55 59 58 60 61 62 62 61 60 59 58 58 54 49 48 53 57 57 57 57 57 59 60 59 57 57 59 64 64 62 61 59 58 57 57 56 54 54 51 48
51 50 50 52 52 55 56 59 59 60 61 60 59 58 58 59 50 47 48 57 58 58 58 57 55 53 57 60 57 55 56 57 60 62 58 57 56 56 56 56 55 52 50
48 48 47 49 50 52 53 55 57 59 59 59 58 58 58 58 51 47 47 54 56 57 58 57 57 57 60 61 62 62 63 63 62 62 59 59 59 59 58 58 56 53 54
45 46 46 47 48 50 51 53 56 56 56 56 56 57 58 58 50 47 48 54 54 56 55 56 56 56 54 52 60 61 62 64 57 55 55 53 51 53 57 59 54 50 49
44 45 47 48 49 49 51 53 54 56 55 54 54 56 55 57 51 47 48 53 53 53 55 56 51 54 50 50 59 61 61 62 60 58 58 54 54 56 54 58 52 49 47
45 46 47 48 50 51 51 52 53 53 54 55 54 54 56 56 57 47 45 54 52 52 51 51 52 47 47 47 49 62 61 61 57 59 59 58 59 59 59 58 51 49 47
46 46 46 47 46 45 48 48 50 51 52 52 52 53 53 55 51 49 45 45 50 53 52 52 53 46 45 46 49 52 49 54 59 58 57 57 58 58 57 57 54 54 51
45 46 47 47 46 47 46 46 45 47 48 48 50 50 50 50 52 47 46 44 45 49 50 49 47 46 44 46 45 47 49 58 57 56 56 56 57 56 55 53 52 52 51
43 43 45 44 43 43 43 44 44 43 43 45 47 48 49 49 50 51 50 49 46 48 48 50 49 49 50 53 48 49 57 57 57 56 56 55 55 54 51 49 48 46 45
41 41 41 41 41 41 41 42 42 43 43 42 44 45 45 48 47 46 47 51 51 52 50 54 55 55 55 52 52 54 56 56 56 55 54 54 53 52 50 50 45 42 41
40 39 40 41 41 41 41 41 40 39 39 39 39 41 43 42 41 41 42 43 44 43 55 55 54 53 53 51 51 53 54 53 54 53 53 52 51 50 49 47 40 39 40
40 40 41 41 41 40 40 40 39 40 40 39 38 38 38 39 39 40 41 41 42 44 53 53 52 52 53 52 52 53 53 53 53 51 50 49 49 49 46 43 36 37 38
41 41 41 41 41 41 41 40 40 40 40 41 40 39 39 38 38 38 39 41 45 44 49 52 52 52 52 52 52 53 53 53 52 50 48 47 47 45 42 38 35 38 37
41 41 41 41 42 42 42 42 42 41 42 42 43 43 41 39 38 38 39 44 44 46 48 49 52 52 52 52 52 53 53 53 52 49 46 47 45 43 41 36 36 34 34
39 38 39 40 40 41 42 42 42 43 43 43 44 44 46 43 46 45 45 45 46 47 49 48 52 52 52 52 52 53 53 52 51 47 47 45 43 41 38 34 35 34 35
38 39 38 40 40 40 41 42 44 43 43 44 45 45 41 47 47 48 48 47 47 48 49 49 52 52 52 52 52 52 51 50 47 47 47 44 39 36 35 34 33 33 34
39 40 41 42 42 41 41 42 42 45 45 44 45 46 39 45 49 49 49 49 49 49 50 51 53 52 52 52 51 51 49 48 46 46 46 42 40 38 34 34 32 32 33
38 39 41 42 44 42 43 43 45 45 45 47 48 48 43 45 49 49 49 50 50 50 51 52 53 53 53 52 51 50 48 47 47 45 42 41 39 36 35 33 32 33 32
40 41 43 45 45 46 46 46 47 44 47 49 49 48 47 47 48 49 49 51 52 52 53 53 53 52 52 51 51 49 48 47 45 44 42 41 37 35 35 33 32 34 34
43 49 49 49 49 48 49 50 51 51 49 48 48 48 49 49 49 49 50 51 51 51 51 52 52 51 51 50 50 49 44 38 43 42 45 40 38 38 35 33 33 35 35
41 44 48 49 50 50 49 48 48 48 48 48 48 49 49 48 48 48 48 49 49 50 50 51 51 51 50 50 48 43 39 38 41 39 41 40 39 38 36 35 36 35 34